Location: Observatorio Las Palmas
(29.0667°N, 110.9333°W)
Time: 20:39:46
(UTC-07:00)

Daily predictions for brighter satellites

Satellite Brightness Start Highest point End
(mag) Time Altitude Azimuth Time Altitude Azimuth Time Altitude Azimuth
CORIOLIS 4.2 18:07:18 10° SSE 18:12:39 86° ENE 18:18:01 10° NNW
OAO 3 Rocket 4.0 18:09:38 10° WNW 18:14:27 55° SSW 18:19:11 10° SE
Cosmos 1328 4.3 18:11:28 10° SSW 18:15:22 63° W 18:19:16 10° N
MOS 1 4.5 18:10:42 10° SSE 18:16:20 82° WSW 18:22:02 10° NNW
Cosmos 2228 Rocket 4.1 18:14:05 10° NNW 18:18:23 52° W 18:22:43 10° S
CZ-4 R/B 2.7 18:15:08 10° S 18:18:49 43° W 18:22:32 10° NNW
BREEZE-M DEB (TANK) 1.0 18:18:50 10° SW 18:20:32 75° NW 18:22:18 10° NE
Cosmos 1626 3.0 18:22:18 10° SSE 18:25:33 29° E 18:28:49 10° NNE
MONITOR-E 4.1 18:23:31 10° SSE 18:26:40 75° ENE 18:29:49 10° N
IDEFIX/ARIANE 42P 3.8 18:21:58 10° S 18:26:57 47° W 18:31:58 10° NNW
Cosmos 2279 Rocket 4.1 18:22:16 10° N 18:28:20 53° E 18:34:23 10° SSE
Cosmos 2333 Rocket 3.9 18:23:48 10° SW 18:28:49 33° WNW 18:33:51 10° N
Cosmos 2219 Rocket 4.3 18:25:21 10° WSW 18:29:52 24° WNW 18:34:24 10° N
Aureole 2 Rocket 3.6 18:27:01 10° SSW 18:30:27 49° WNW 18:34:15 10° N
SJ-6B 4.2 18:28:42 10° ESE 18:31:37 20° ENE 18:34:35 10° NNE
Intelsat 5-1 Rocket 2.5 18:31:34 10° WSW 18:33:47 31° S 18:37:16 10° ESE
Cosmos 1703 3.3 18:30:46 10° S 18:34:35 56° E 18:38:24 10° NNE
Cosmos 1151 Rocket 3.4 18:34:07 10° NNW 18:38:23 69° W 18:42:38 10° S
Nadezhda 4 Rocket 4.2 18:35:11 10° SSE 18:41:05 47° E 18:47:04 10° NNE
Cosmos 1805 Rocket 3.5 18:37:48 10° S 18:42:13 75° E 18:46:41 10° N
Cosmos 1455 3.4 18:41:15 10° NNE 18:44:14 21° E 18:47:13 10° SE
Cosmos 1726 3.3 18:43:49 10° NNW 18:47:27 47° W 18:51:05 10° SSW
Cosmos 2278 Rocket 2.2 18:41:45 10° NNW 18:47:27 89° ENE 18:53:07 10° SSE
FREGAT/IRIS 3.7 18:46:08 10° SE 18:48:39 24° ENE 18:51:11 10° NNE
Cosmos 2180 Rocket 4.4 18:47:00 10° N 18:53:11 72° E 18:59:24 10° SSE
Cosmos 773 Rocket 4.0 18:48:52 10° S 18:53:52 56° ESE 18:58:56 10° NNE
Helios 1B rocket 4.2 18:56:26 15° ESE 18:56:26 15° ESE 18:58:03 10° SE
Cosmos 372 Rocket 4.0 18:51:26 10° NNW 18:56:32 84° WSW 19:01:37 10° SSE
Cosmos 1340 Rocket 4.3 18:55:22 10° SSW 18:59:03 38° W 19:02:44 10° N
Sich 1 3.0 18:55:03 10° S 18:59:27 74° E 19:03:54 10° N
Cosmos 1092 Rocket 4.2 18:55:27 10° SSE 19:01:29 50° E 19:07:34 10° NNE
Atlas Centaur 2 4.2 19:00:21 10° WSW 19:03:52 18° SW 19:06:55 10° S
Cosmos 1633 Rocket 2.9 19:02:38 10° S 19:07:02 80° E 19:11:27 10° N
USA 215 3.9 19:08:58 23° E 19:11:56 34° NE 19:17:41 10° NNW
SL-16 R/B 3.2 19:06:36 10° SW 19:11:59 45° WNW 19:17:24 10° N
Delta 2 Rocket 3.8 19:11:08 10° SW 19:14:08 31° SSE 19:14:25 31° SE
Longmarch 3A Rocket 3.3 19:17:13 10° S 19:17:21 10° S 19:17:21 10° S
CZ-3C R/B 4.0 19:13:30 10° SW 19:20:19 14° S 19:23:42 10° SSE
OTV 4 0.7 19:19:12 10° WNW 19:22:08 61° SSW 19:22:13 60° SSW
Hubble Space Telescope 3.7 19:22:58 10° SW 19:24:14 11° SSW 19:25:31 10° S
Coronas F rocket 2.6 19:23:19 10° SSW 19:25:10 35° WSW 19:25:10 35° WSW
Cosmos 2297 3.7 19:24:30 10° NNW 19:30:15 87° WSW 19:35:58 10° SSE
Milstar 3 3.5 19:26:34 10° W 19:32:56 49° SSW 19:38:30 18° SE
Resurs 01 Rocket 3.1 19:34:10 10° SSE 19:41:22 22° N 19:42:59 10° N
Cosmos 1900 4.2 19:33:47 10° NNW 19:38:46 83° ENE 19:41:18 30° SSE
Spot 2 Rocket 3.3 19:35:12 10° SSE 19:40:12 66° ENE 19:45:11 10° N
Aureole 1 Rocket 4.3 19:35:39 10° SSW 19:40:20 53° WNW 19:46:36 10° N
Tiangong 1 2.8 19:38:29 10° WSW 19:40:17 31° W 19:40:17 31° W
Lacrosse 5 rocket 1.9 19:41:58 10° NW 19:45:48 53° WSW 19:46:42 43° SSW
FENGYUN 3A 3.5 19:41:26 10° SSE 19:46:46 84° ENE 19:52:09 10° N
Cosmos 1655 Rocket 4.0 19:44:26 10° S 19:50:42 61° E 19:51:25 57° ENE
Cosmos 1943 3.6 19:46:07 10° S 19:50:28 46° SE 19:50:28 46° SE
Cosmos 1933 Rocket 3.8 19:48:35 10° SSW 19:52:58 67° W 19:53:28 61° NW
Iridium 4 Rocket 4.2 19:51:16 10° SSW 19:55:44 44° W 19:59:35 12° NNW
Cosmos 1627 Rocket 4.4 19:52:57 10° S 19:59:10 83° W 20:03:14 23° N
ALOS 2.6 19:55:00 10° S 19:59:35 62° W 20:04:13 10° NNW
BREEZE-M DEB (TANK) 3.7 20:03:42 10° SW 20:07:38 78° NW 20:09:57 49° NE
NOSS 3-1 (A) 3.9 20:03:08 10° SSW 20:06:54 42° S 20:06:54 42° S
Cosmos 1680 Rocket 4.3 20:04:45 10° SSW 20:09:46 49° WNW 20:10:57 41° NNW
H-2A ROCKET BODY 3.6 20:43:13 10° W 20:51:58 42° W 20:51:58 42° W
USA 215 4.1 20:56:21 44° W 20:56:21 44° W 21:01:02 10° NW
